Location: *
(50.2903°S, 172.5375°W)
Time: 19:49:54
(UTC+00:00)

IRS-P3 - Pass Details

Date: 17 November 2019
Orbit: 814 x 818 km, 98.8° (Epoch: 05 December)

Event Time Altitude Azimuth Distance (km) Brightness Sun altitude
Exits shadow 13:04:01 25° 353° (N) 1,601 5.1 -16.7°
Maximum altitude 13:07:04 59° 281° (WNW) 958 4.3 -16.4°
Drops below altitude 10° 13:12:27 10° 202° (SSW) 2,452 7.2 -16.0°
Sets 13:14:52 0° 197° (SSW) 3,391 8.0 -15.8°
